• en Suisse
  • Liste des pays
  • À 7 jours
  • Température de l'eau
  • Carte satellitaire
  • Carte météo
  • Widgets météo
  • user-avatar
    Se connecter

    Météo par heure à Serebryanka

    Ce jour, 18 Juillet, Mercredi

    Heure Température Précipitation Vent Pression Humidité
    00:00 +22°C° 0,3 mm 4 m/s 744 mmHg 72%
    01:00 +22°C° 0,3 mm 4 m/s 744 mmHg 73%
    02:00 +22°C° 0 mm 4 m/s 744 mmHg 75%
    03:00 +22°C° 0,5 mm 4 m/s 744 mmHg 76%
    04:00 +22°C° 0,5 mm 3 m/s 744 mmHg 76%
    05:00 +22°C° 0,5 mm 3 m/s 744 mmHg 77%
    06:00 +25°C° 0 mm 3 m/s 744 mmHg 68%
    07:00 +26°C° 0 mm 3 m/s 744 mmHg 59%
    08:00 +29°C° 0 mm 4 m/s 744 mmHg 50%
    09:00 +29°C° 0,1 mm 4 m/s 744 mmHg 46%
    10:00 +30°C° 0,1 mm 4 m/s 744 mmHg 43%
    11:00 +32°C° 0,1 mm 5 m/s 744 mmHg 39%
    12:00 +32°C° 0 mm 5 m/s 743 mmHg 40%
    13:00 +32°C° 0 mm 5 m/s 743 mmHg 40%
    14:00 +32°C° 0 mm 5 m/s 743 mmHg 40%
    15:00 +32°C° 0 mm 5 m/s 743 mmHg 41%
    16:00 +30°C° 0 mm 5 m/s 743 mmHg 43%
    17:00 +30°C° 0 mm 5 m/s 743 mmHg 44%
    18:00 +28°C° 0 mm 4 m/s 743 mmHg 50%
    19:00 +27°C° 0 mm 3 m/s 743 mmHg 55%
    20:00 +25°C° 0 mm 3 m/s 743 mmHg 61%
    21:00 +25°C° 0 mm 3 m/s 743 mmHg 64%
    22:00 +24°C° 0 mm 3 m/s 743 mmHg 68%
    23:00 +24°C° 0 mm 3 m/s 743 mmHg 71%

    Demain, 19 Juillet, Jeudi

    Heure Température Précipitation Vent Pression Humidité
    00:00 +23°C° 0,2 mm 2 m/s 743 mmHg 72%
    01:00 +23°C° 0,2 mm 2 m/s 743 mmHg 74%
    02:00 +23°C° 0,2 mm 2 m/s 743 mmHg 75%
    03:00 +23°C° 0,1 mm 2 m/s 743 mmHg 75%
    04:00 +23°C° 0,1 mm 2 m/s 743 mmHg 76%
    05:00 +23°C° 0,1 mm 2 m/s 743 mmHg 76%
    06:00 +25°C° 0 mm 2 m/s 743 mmHg 67%
    07:00 +26°C° 0 mm 1 m/s 743 mmHg 59%
    08:00 +28°C° 0 mm 1 m/s 744 mmHg 50%
    09:00 +29°C° 0 mm 2 m/s 744 mmHg 46%
    10:00 +30°C° 0 mm 2 m/s 744 mmHg 43%
    11:00 +31°C° 0 mm 2 m/s 744 mmHg 39%
    12:00 +31°C° 0 mm 2 m/s 744 mmHg 38%
    13:00 +31°C° 0 mm 3 m/s 744 mmHg 38%
    14:00 +31°C° 0 mm 3 m/s 744 mmHg 38%
    15:00 +31°C° 0 mm 3 m/s 744 mmHg 40%
    16:00 +31°C° 0 mm 3 m/s 744 mmHg 41%
    17:00 +30°C° 0 mm 4 m/s 744 mmHg 42%
    18:00 +29°C° 0 mm 3 m/s 744 mmHg 48%
    19:00 +27°C° 0 mm 3 m/s 744 mmHg 54%
    20:00 +26°C° 0 mm 3 m/s 744 mmHg 59%
    21:00 +25°C° 0,1 mm 3 m/s 745 mmHg 62%
    22:00 +25°C° 0,1 mm 2 m/s 745 mmHg 66%
    23:00 +24°C° 0,1 mm 2 m/s 745 mmHg 69%

    Après-demain, 20 Juillet, Vendredi

    Heure Température Précipitation Vent Pression Humidité
    00:00 +24°C° 0 mm 2 m/s 745 mmHg 70%
    01:00 +23°C° 0 mm 2 m/s 745 mmHg 72%
    02:00 +23°C° 0 mm 2 m/s 745 mmHg 73%
    03:00 +23°C° 0 mm 2 m/s 744 mmHg 74%
    04:00 +23°C° 0 mm 2 m/s 744 mmHg 75%
    05:00 +23°C° 0 mm 2 m/s 744 mmHg 75%
    06:00 +25°C° 0 mm 3 m/s 745 mmHg 67%
    07:00 +27°C° 0 mm 3 m/s 745 mmHg 59%
    08:00 +29°C° 0 mm 3 m/s 745 mmHg 50%
    09:00 +30°C° 0 mm 3 m/s 745 mmHg 46%
    10:00 +32°C° 0 mm 4 m/s 745 mmHg 42%
    11:00 +33°C° 0 mm 4 m/s 745 mmHg 38%
    12:00 +33°C° 0 mm 4 m/s 745 mmHg 38%
    13:00 +33°C° 0 mm 5 m/s 745 mmHg 38%
    14:00 +34°C° 0 mm 5 m/s 745 mmHg 38%
    15:00 +33°C° 0 mm 5 m/s 745 mmHg 41%
    16:00 +32°C° 0 mm 5 m/s 745 mmHg 43%
    17:00 +32°C° 0 mm 5 m/s 745 mmHg 45%
    18:00 +29°C° 0 mm 4 m/s 745 mmHg 52%
    19:00 +28°C° 0 mm 4 m/s 746 mmHg 58%
    20:00 +26°C° 0 mm 4 m/s 746 mmHg 64%
    21:00 +26°C° 0 mm 4 m/s 746 mmHg 68%
    22:00 +25°C° 0 mm 4 m/s 746 mmHg 71%
    23:00 +25°C° 0 mm 4 m/s 746 mmHg 75%

    21 Juillet, Samedi

    Heure Température Précipitation Vent Pression Humidité
    00:00 +25°C° 0 mm 4 m/s 746 mmHg 76%
    01:00 +24°C° 0 mm 3 m/s 746 mmHg 77%
    02:00 +24°C° 0 mm 3 m/s 746 mmHg 77%
    03:00 +24°C° 0 mm 3 m/s 746 mmHg 78%
    04:00 +24°C° 0 mm 3 m/s 746 mmHg 78%
    05:00 +24°C° 0 mm 3 m/s 746 mmHg 78%
    06:00 +25°C° 0 mm 3 m/s 746 mmHg 71%
    07:00 +27°C° 0 mm 3 m/s 747 mmHg 64%
    08:00 +28°C° 0 mm 3 m/s 747 mmHg 57%
    09:00 +29°C° 0 mm 3 m/s 747 mmHg 54%
    10:00 +30°C° 0 mm 4 m/s 747 mmHg 51%
    11:00 +32°C° 0 mm 4 m/s 747 mmHg 47%
    12:00 +32°C° 0 mm 4 m/s 747 mmHg 47%
    13:00 +32°C° 0 mm 4 m/s 747 mmHg 47%
    14:00 +32°C° 0 mm 5 m/s 747 mmHg 47%
    15:00 +32°C° 0 mm 5 m/s 747 mmHg 48%
    16:00 +30°C° 0 mm 5 m/s 747 mmHg 50%
    17:00 +30°C° 0 mm 5 m/s 747 mmHg 51%
    18:00 +29°C° 0 mm 4 m/s 747 mmHg 57%
    19:00 +27°C° 0 mm 4 m/s 747 mmHg 64%
    20:00 +26°C° 0 mm 4 m/s 747 mmHg 70%
    21:00 +25°C° 0 mm 4 m/s 747 mmHg 73%
    22:00 +25°C° 0 mm 4 m/s 747 mmHg 77%
    23:00 +24°C° 0 mm 3 m/s 747 mmHg 80%

    22 Juillet, Dimanche

    Heure Température Précipitation Vent Pression Humidité
    00:00 +24°C° 0,2 mm 3 m/s 747 mmHg 80%
    01:00 +24°C° 0,2 mm 3 m/s 747 mmHg 81%
    02:00 +24°C° 0,2 mm 3 m/s 747 mmHg 81%
    03:00 +24°C° 0 mm 3 m/s 747 mmHg 81%
    04:00 +24°C° 0 mm 2 m/s 747 mmHg 81%
    05:00 +24°C° 0 mm 2 m/s 747 mmHg 82%
    06:00 +25°C° 0,2 mm 2 m/s 747 mmHg 74%
    07:00 +27°C° 0,2 mm 2 m/s 747 mmHg 66%
    08:00 +28°C° 0,2 mm 2 m/s 747 mmHg 59%
    09:00 +30°C° 0 mm 3 m/s 747 mmHg 54%
    10:00 +31°C° 0 mm 3 m/s 747 mmHg 49%
    11:00 +33°C° 0 mm 3 m/s 747 mmHg 45%
    12:00 +33°C° 0 mm 4 m/s 747 mmHg 43%
    13:00 +33°C° 0 mm 4 m/s 746 mmHg 42%
    14:00 +33°C° 0 mm 5 m/s 746 mmHg 40%
    15:00 +33°C° 0 mm 5 m/s 746 mmHg 42%
    16:00 +32°C° 0 mm 5 m/s 746 mmHg 43%
    17:00 +32°C° 0 mm 5 m/s 746 mmHg 45%
    18:00 +29°C° 0 mm 4 m/s 746 mmHg 51%
    19:00 +28°C° 0 mm 4 m/s 746 mmHg 58%
    20:00 +26°C° 0 mm 3 m/s 746 mmHg 64%
    21:00 +25°C° 0 mm 3 m/s 746 mmHg 67%
    22:00 +25°C° 0 mm 2 m/s 746 mmHg 70%
    23:00 +24°C° 0 mm 2 m/s 746 mmHg 72%

    23 Juillet, Lundi

    Heure Température Précipitation Vent Pression Humidité
    00:00 +24°C° 0 mm 2 m/s 746 mmHg 74%
    01:00 +24°C° 0 mm 1 m/s 746 mmHg 75%
    02:00 +23°C° 0 mm 1 m/s 746 mmHg 76%
    03:00 +23°C° 0 mm 1 m/s 746 mmHg 76%
    04:00 +23°C° 0 mm 1 m/s 746 mmHg 76%
    05:00 +23°C° 0 mm 1 m/s 746 mmHg 76%
    06:00 +25°C° 0 mm 1 m/s 746 mmHg 68%
    07:00 +27°C° 0 mm 1 m/s 746 mmHg 61%
    08:00 +29°C° 0 mm 1 m/s 746 mmHg 53%
    09:00 +30°C° 0 mm 1 m/s 746 mmHg 48%
    10:00 +32°C° 0 mm 1 m/s 746 mmHg 43%
    11:00 +33°C° 0 mm 1 m/s 746 mmHg 38%
    12:00 +34°C° 0 mm 2 m/s 746 mmHg 37%
    13:00 +34°C° 0 mm 2 m/s 745 mmHg 36%
    14:00 +35°C° 0 mm 3 m/s 745 mmHg 35%
    15:00 +34°C° 0 mm 3 m/s 745 mmHg 36%
    16:00 +34°C° 0 mm 3 m/s 745 mmHg 37%
    17:00 +34°C° 0 mm 4 m/s 745 mmHg 38%
    18:00 +32°C° 0 mm 4 m/s 745 mmHg 43%
    19:00 +30°C° 0 mm 3 m/s 745 mmHg 47%
    20:00 +28°C° 0 mm 3 m/s 746 mmHg 52%
    21:00 +28°C° 0 mm 3 m/s 746 mmHg 56%
    22:00 +27°C° 0 mm 3 m/s 746 mmHg 60%
    23:00 +26°C° 0 mm 2 m/s 746 mmHg 63%
    Voir plus